Location: ?????????
(54.7630°N, 39.4991°E)
Time: 11:11:51
(UTC+00:00)

Okean 2 Rocket - Pass Details

Date: 14 April 2026
Orbit: 612 x 633 km, 82.5° (Epoch: 10 May)

Event Time Altitude Azimuth Distance (km) Brightness Sun altitude
Exits shadow 21:37:27 52° 295° (WNW) 780 3.6 -25.5°
Drops below altitude 10° 21:41:41 10° 4° (N) 2,013 6.7 -25.4°
Sets 21:43:59 0° 10° (N) 2,928 7.9 -25.4°
